This demonstration page uses our WeatherBlox Daily Observations layout. Learn more.

Left ArrowRight Arrow

39.51506, -84.39828

Hourly Observations for June 4, 2015

Temp ( °F °C ) Dew Point ( °F °C ) Humidity (%) Winds ( mph kmh ) Pressure ( in mb ) Visibility ( mi km ) Precip ( " mm )
12:15 am 00:15 Clear with Mist and Fog 60 15.3 56 13.4 89 89 N N/A 30.03 1017 5 8 N/A
12:35 am 00:35 Clear with Mist and Fog 60 15.3 56 13.5 89 89 N 5 7 30.03 1017 5 8 N/A
12:55 am 00:55 Clear with Mist and Fog 60 15.3 56 13.5 89 89 N N/A 30.03 1017 5 8 N/A
1:15 am 01:15 Clear with Mist and Fog 60 15.3 56 13.4 89 89 N N/A 30.03 1017 4 6 N/A
1:35 am 01:35 Clear with Mist and Fog 57 13.8 54 12 89 89 N N/A 30.03 1017 4 6 N/A
1:55 am 01:55 Clear with Mist and Fog 57 13.8 54 12 89 89 N N/A 30.03 1017 3 4 N/A
2:15 am 02:15 Mostly Cloudy with Mist and Fog 57 13.8 54 12 89 89 N N/A 30.06 1018 1 2 N/A
2:35 am 02:35 Mostly Cloudy with Mist and Fog 57 13.9 54 12.1 89 89 N N/A 30.06 1018 5 8 N/A
2:55 am 02:55 Cloudy with Mist and Fog 60 15.3 56 13.5 89 89 N N/A 30.06 1018 5 8 N/A
3:15 am 03:15 Cloudy with Mist and Fog 60 15.3 56 13.5 89 89 N N/A 30.06 1018 5 8 N/A
3:35 am 03:35 Cloudy with Mist and Fog 60 15.3 56 13.5 89 89 N N/A 30.06 1018 5 8 N/A
3:55 am 03:55 Cloudy with Mist and Fog 60 15.3 56 13.5 89 89 N N/A 30.06 1018 5 8 N/A
4:15 am 04:15 Mostly Cloudy with Mist and Fog 60 15.3 56 13.5 89 89 N N/A 30.03 1017 4 6 N/A
4:35 am 04:35 Partly Cloudy with Mist and Fog 60 15.3 56 13.5 89 89 N N/A 30.03 1017 4 6 N/A
4:55 am 04:55 Partly Cloudy with Mist and Fog 60 15.3 56 13.5 89 89 NE 3 6 30.03 1017 4 6 N/A
5:15 am 05:15 Clear with Mist and Fog 60 15.3 56 13.5 89 89 NW 3 6 30.06 1018 3 5 N/A
5:35 am 05:35 Clear with Mist and Fog 59 15 56 13.2 89 89 N N/A 30.06 1018 3 5 N/A
5:55 am 05:55 Partly Cloudy with Mist and Fog 57 14 54 12.2 89 89 N N/A 30.06 1018 3 5 N/A
6:15 am 06:15 Partly Cloudy with Mist and Fog 57 13.8 54 12 89 89 N N/A 30.06 1018 3 4 N/A
6:35 am 06:35 Mostly Cloudy with Mist and Fog 59 15 56 13.3 90 90 N N/A 30.06 1018 3 5 N/A
6:55 am 06:55 Partly Cloudy with Mist and Fog 60 15.3 56 13.6 90 90 N N/A 30.06 1018 3 5 N/A
7:15 am 07:15 Mostly Cloudy with Mist and Fog 60 15.3 56 13.6 90 90 N N/A 30.09 1019 3 5 N/A
7:35 am 07:35 Mostly Cloudy with Mist and Fog 61 16 57 14.1 89 89 N N/A 30.09 1019 4 6 N/A
7:55 am 07:55 Sunny with Mist and Fog 62 16.6 58 14.6 88 88 N N/A 30.06 1018 4 6 N/A
8:15 am 08:15 Partly Cloudy with Mist and Fog 64 17.9 60 15.4 85 85 N N/A 30.06 1018 5 8 N/A
8:35 am 08:35 Partly Cloudy 68 20.1 62 16.7 81 81 N N/A 30.06 1018 7 11 N/A
8:55 am 08:55 Partly Cloudy 69 20.8 62 16.6 77 77 N N/A 30.06 1018 7 11 N/A
9:15 am 09:15 Sunny 70 21 61 16.1 74 74 ENE 5 7 30.06 1018 7 11 N/A
9:35 am 09:35 Sunny 72 22.1 61 16.2 69 69 N N/A 30.06 1018 10 16 N/A
9:55 am 09:55 Sunny 73 22.9 62 16.8 69 69 N N/A 30.06 1018 10 16 N/A
10:15 am 10:15 Sunny 74 23.6 63 17.1 67 67 N N/A 30.06 1018 10 16 N/A
10:35 am 10:35 Sunny 74 23.6 62 16.6 65 65 N N/A 30.06 1018 10 16 N/A
10:55 am 10:55 Partly Cloudy 74 23.6 61 16.3 64 64 N N/A 30.03 1017 10 16 N/A
11:15 am 11:15 Partly Cloudy 77 25.1 62 16.5 59 59 N N/A 30.03 1017 10 16 N/A
11:35 am 11:35 Partly Cloudy 77 25.1 62 16.4 59 59 ESE 5 7 30.03 1017 10 16 N/A
11:55 am 11:55 Partly Cloudy 80 26.5 63 17 56 56 N N/A 30.03 1017 10 16 N/A
12:15 pm 12:15 Partly Cloudy 80 26.4 61 16 53 53 N N/A 30.03 1017 10 16 N/A
12:35 pm 12:35 Partly Cloudy 79 26 60 15.6 53 53 N N/A 30.03 1017 10 16 N/A
12:55 pm 12:55 Mostly Cloudy 78 25.4 59 15.2 53 53 N N/A 30.03 1017 10 16 N/A
1:15 pm 13:15 Mostly Cloudy 78 25.5 60 15.7 55 55 W 3 6 30.03 1017 10 16 N/A
1:35 pm 13:35 Partly Cloudy 80 26.5 61 16 53 53 SSW 5 7 30.03 1017 10 16 N/A
1:55 pm 13:55 Partly Cloudy 80 26.7 60 15.8 51 51 S 3 6 30.03 1017 10 16 N/A
2:15 pm 14:15 Mostly Cloudy 80 26.5 61 16 53 53 WSW 7 11 30.03 1017 10 16 N/A
2:35 pm 14:35 Mostly Cloudy 81 27 60 15.4 49 49 WSW 5 7 30.03 1017 10 16 N/A
2:55 pm 14:55 Partly Cloudy 82 28 61 16 48 48 SSE 5 7 30.03 1017 10 16 N/A
3:15 pm 15:15 Partly Cloudy 82 27.8 60 15.8 48 48 W 6 9 30.00 1016 10 16 N/A
3:35 pm 15:35 Sunny 82 28 60 15.6 47 47 SW 9 15 30.00 1016 10 16 N/A
3:55 pm 15:55 Sunny 82 28 58 14.6 44 44 SW 8 13 30.00 1016 10 16 N/A
4:15 pm 16:15 Sunny 82 28 58 14.6 44 44 SW 5 7 30.00 1016 10 16 N/A
4:35 pm 16:35 Partly Cloudy 80 26.8 59 15 48 48 W 7 11 30.00 1016 10 16 N/A
4:55 pm 16:55 Sunny 83 28.1 59 14.8 44 44 WNW 3 6 30.00 1016 10 16 N/A
5:15 pm 17:15 Sunny 82 28 58 14.4 43 43 W 5 7 30.00 1016 10 16 N/A
5:35 pm 17:35 Sunny 81 27.2 59 14.8 47 47 W 6 9 30.00 1016 10 16 N/A
5:55 pm 17:55 Sunny 82 28 58 14.3 43 43 WSW 7 11 30.00 1016 10 16 N/A
6:15 pm 18:15 Sunny 81 27.2 55 12.7 41 41 W 10 17 30.00 1016 10 16 N/A
6:35 pm 18:35 Sunny 81 27.3 55 12.9 41 41 SW 6 9 30.00 1016 10 16 N/A
6:55 pm 18:55 Sunny 81 27.2 55 12.9 41 41 WSW 6 9 30.00 1016 10 16 N/A
7:15 pm 19:15 Sunny 81 27.2 55 12.7 41 41 SW 6 9 30.00 1016 10 16 N/A
7:35 pm 19:35 Sunny 80 26.5 56 13.6 45 45 W 5 7 30.00 1016 10 16 N/A
7:55 pm 19:55 Sunny 77 25.2 57 14 50 50 WSW 5 7 30.00 1016 10 16 N/A
8:15 pm 20:15 Sunny 77 25.1 60 15.5 55 55 W 3 6 30.00 1016 10 16 N/A
8:35 pm 20:35 Sunny 74 23.6 63 17.2 67 67 N N/A 30.00 1016 10 16 N/A
8:55 pm 20:55 Sunny 70 21.1 61 16.2 74 74 N N/A 30.00 1016 10 16 N/A
9:15 pm 21:15 Clear 69 20.8 62 16.5 77 77 N N/A 30.00 1016 10 16 N/A
9:35 pm 21:35 Clear 69 20.8 63 17.4 81 81 N N/A 30.00 1016 10 16 N/A
9:55 pm 21:55 Clear 67 19.5 62 16.6 83 83 N N/A 30.00 1016 10 16 N/A
10:15 pm 22:15 Clear 67 19.5 62 16.7 84 84 N N/A 30.00 1016 10 16 N/A
10:35 pm 22:35 Clear 65 18.1 60 15.5 85 85 N N/A 30.00 1016 10 16 N/A
10:55 pm 22:55 Clear 64 18 60 15.5 85 85 N N/A 30.00 1016 10 16 N/A
11:15 pm 23:15 Clear 64 18 60 15.6 86 86 N N/A 30.00 1016 10 16 N/A
11:35 pm 23:35 Clear 64 17.8 60 15.5 86 86 N N/A 30.00 1016 10 16 N/A
11:55 pm 23:55 Clear 63 17.2 59 15.1 88 88 N N/A 30.03 1017 10 16 N/A

Powered by AerisWeather